Regional Weather Roundup
Issued by NWS

Home | Current Version | Previous Version | Text Only | Print | Product List | Glossary On
Versions: 1 2 3 4 5 6 7 8 9 10 11 12 13 14 15 16 17 18 19 20 21 22 23 24 25 26 27 28 29 30 31 32 33 34 35 36 37 38 39 40 41 42 43 44 45 46 47 48 49 50
000
ASUS43 KDTX 240710
RWRMI
MICHIGAN HOURLY REGIONAL WEATHER ROUNDUP
NATIONAL WEATHER SERVICE DETROIT/PONTIAC MI
200 AM EST MON FEB 24 2020

NOTE: "FAIR" INDICATES FEW OR NO CLOUDS BELOW 12,000 FEET WITH NO
SIGNIFICANT WEATHER AND/OR OBSTRUCTION TO VISIBILITY.

MIZ047>049-052>055-059>063-066>070-074>076-081>083-240800-
SOUTHEAST LOWER MICHIGAN

CITY           SKY/WX    TMP DP  RH WIND       PRES   REMARKS
ADRIAN         FAIR      34  29  82 W7        29.93F WCI  28
ALMA           FAIR      37  30  78 SW6       29.88R WCI  32
ANN ARBOR      FAIR      28  25  88 SW3       29.91S
BAD AXE        FAIR      39  31  73 SW8       29.84S WCI  33
CARO           FAIR      39  31  74 SW6       29.86R WCI  34
DETROIT CITY   FAIR      38  30  73 SW8       29.91S WCI  32
DETROIT        FAIR      36  31  82 SW9       29.92S WCI  29
FLINT          FAIR      40  33  76 SW8       29.88S WCI  34
GROSSE ILE     FAIR      34  30  86 S6        29.92R WCI  29
HILLSDALE      FAIR      38  33  81 SW3       29.91S
HOWELL         FAIR      38  32  80 SW5       29.88S WCI  34

CITY           SKY/WX    TMP DP  RH WIND       PRES   REMARKS
JACKSON        FAIR      39  33  79 SW9       29.90S WCI  33
LAMBERTVILLE   FAIR      42  31  65 SW6       29.93S
LANSING        FAIR      38  32  79 SW7       29.89S WCI  33
LAPEER         FAIR      39  32  74 SW6       29.87S WCI  35
MASON          FAIR      37  34  87 SW5       29.89S WCI  34
MONROE         FAIR      37  29  72 SW7       29.92S WCI  32
MT. CLEMENS    FAIR      39  35  86 SW8       29.88S WCI  33
PONTIAC        FAIR      37  31  78 SW3       29.87F
PORT HOPE        N/A     39  29  67 SW8       29.81S WCI  33
PORT HURON     FAIR      36  30  80 SW3       29.89S
TRI CITIES     FAIR      37  28  70 SW10      29.86S WCI  30
MIDLAND        FAIR     N/A N/A N/A SW5       29.85R
TROY           FAIR      38  32  79 SW8       29.92R WCI  32
SAGINAW HB     FAIR      36  30  80 SW7       29.86R WCI  30
$$
MIZ043>046-050>051-056>058-064>065-071>073-077>080-240800-
SOUTHWEST LOWER MICHIGAN

CITY           SKY/WX    TMP DP  RH WIND       PRES   REMARKS
BATTLE CREEK   FAIR      36  34  92 SW7       29.91R WCI  30
BENTON HARBOR  FAIR      38  33  82 W7        29.91S WCI  33
BIG RAPIDS     FAIR      32  28  83 W6        29.84R WCI  27
COLDWATER      FAIR      37  36  93 SW8       29.92S WCI  31
FREMONT        FAIR      33  30  88 CALM      29.87R
HOLLAND        FAIR      39  34  82 W8        29.90R WCI  33
IONIA          FAIR      37  29  75 SW8       29.88R WCI  30
KALAMAZOO      FAIR      37  33  85 SW8       29.91R WCI  31
LUDINGTON      FAIR      38  31  74 NW7       29.86R WCI  33
MARSHALL       FAIR      38  33  80 SW5       29.90S WCI  35
MOUNT PLEASANT FAIR      36  30  78 SW6       29.85R WCI  31
MUSKEGON       FAIR      38  30  73 W5        29.88R WCI  34
SOUTH HAVEN    FAIR      42  33  69 W6        29.91S
$$
MIZ016>042-240800-
NORTHERN LOWER MICHIGAN

CITY           SKY/WX    TMP DP  RH WIND       PRES   REMARKS
ALPENA         FAIR      35  26  69 W5        29.79R WCI  31
BEAVER ISLAND  FAIR      37  28  69 W6        29.81R WCI  32
BELLAIRE       FAIR      27  25  92 W3        29.82R
CADILLAC       FAIR      34  23  63 W7        29.81R WCI  28
CHARLEVOIX     FAIR      36  30  79 W9        29.81R WCI  29
FRANKFORT      FAIR      37  30  77 W8        29.85R WCI  31
GAYLORD        FAIR      31  25  78 CALM      29.78R
GRAYLING       FAIR      32  26  80 W3        29.79R
HARBOR SPRINGS FAIR      32  32  99 CALM      29.80R
HOUGHTON LAKE  FAIR      27  24  89 SW6       29.81S WCI  20
MANISTEE       FAIR      39  29  67 W13       29.85R WCI  31
OSCODA         FAIR      31  26  81 W8        29.80R WCI  23
PELLSTON       FAIR      28  26  92 CALM      29.80R
ROGERS CITY    FAIR      34  27  77 SW6       29.79S WCI  29
TRAVERSE CITY  FAIR      37  28  70 SW8       29.81R WCI  31
$$
MIZ007>008-015-240800-
EASTERN UPPER MICHIGAN

CITY           SKY/WX    TMP DP  RH WIND       PRES   REMARKS
KINROSS        FAIR      28  25  88 W8        29.75R WCI  20
MACKINAC ISLAN FAIR      33  28  79 W7        29.77R WCI  27
NEWBERRY       FAIR      32  25  76 W9        29.76R WCI  24
S. S. MARIE    FAIR      35  27  72 W9        29.73R WCI  28
MUNISING         N/A     36  24  62 W6        29.80  WCI  31
$$
MIZ004>006-011>014-085-240800-
CENTRAL UPPER MICHIGAN

CITY           SKY/WX    TMP DP  RH WIND       PRES   REMARKS
MANISTIQUE     FAIR      33  26  76 W6        29.80R WCI  27
ESCANABA       FAIR      32  24  72 W9        29.85R WCI  24
MENOMINEE      FAIR      34  24  67 NW3       29.89R
SAWYER-GWINN   FAIR      32  24  71 W6        29.80R WCI  27
$$
MIZ001>003-009>011-084-240800-
WESTERN UPPER MICHIGAN

CITY           SKY/WX    TMP DP  RH WIND       PRES   REMARKS
IRON MOUNTAIN  FAIR      33  22  63 W6        29.84R WCI  28
HOUGHTON       FAIR      34  26  72 W22       29.77R WCI  22
COPPER HARBOR    N/A     37  27  67 NW13G30   29.76R WCI  29
IRONWOOD       FAIR      30  24  78 W12       29.88R WCI  20
$$

ABBREVIATIONS USED IN REMARKS
   TC - TEMPERATURE IN CELSIUS
  WCI - WIND CHILL INDEX
   HX - HEAT INDEX
  VSB - VISIBILITY




USA.gov is the U.S. government's official web portal to all federal, state and local government web resources and services.